Overview Statistics Trail Chart Weather Telemetry Raw packets
 

This is the latest recevied weather packets stored in our database for station/object KG7FOQ-13. If no packets are shown the sender has not sent any weather packets the latest 10 day(s).

<< 100 101 102 103 104 105 106 >>
Time Temp. Humidity Pressure Rain* Wind** Luminosity Snow
1787856585 30.56° C 16% 1018.5 hPa 0 mm - - -
1787856285 29.44° C 18% 1018.5 hPa 0 mm - - -
1787855984 28.89° C 19% 1018.6 hPa 0 mm - - -
1787855382 30° C 18% 1018.5 hPa 0 mm - - -
1787855082 30° C 18% 1018.5 hPa 0 mm - - -
1787854781 30° C 16% 1018.6 hPa 0 mm - - -
1787854482 29.44° C 18% 1018.6 hPa 0 mm - - -
1787854180 29.44° C 16% 1018.6 hPa 0 mm - - -
1787853880 30° C 17% 1018.6 hPa 0 mm - - -
1787853579 29.44° C 18% 1018.7 hPa 0 mm - - -
1787853279 29.44° C 17% 1018.7 hPa 0 mm - - -
1787852678 28.89° C 18% 1018.8 hPa 0 mm - - -
1787852076 28.89° C 22% 1018.8 hPa 0 mm - - -
1787851775 28.89° C 25% 1018.8 hPa 0 mm - - -
1787851545 28.33° C 21% 1018.8 hPa 0 mm - - -
1787851474 28.33° C 21% 1018.8 hPa 0 mm - - -
1787851174 28.89° C 22% 1018.8 hPa 0 mm - - -
1787850873 28.33° C 20% 1018.8 hPa 0 mm - - -
1787850572 28.33° C 20% 1018.6 hPa 0 mm - - -
1787849973 28.89° C 16% 1018.8 hPa 0 mm - - -
1787849670 28.33° C 16% 1018.9 hPa 0 mm - - -
1787849369 27.22° C 25% 1019 hPa 0 mm - - -
1787849069 26.67° C 24% 1019 hPa 0 mm - - -
1787848768 26.67° C 23% 1019 hPa 0 mm - - -
1787848467 27.22° C 20% 1018.9 hPa 0 mm - - -

* Rain latest hour (hover to see other rain measurements)
** Current wind speed in m/s (hover to see current wind gust speed)